Regional Weather Roundup
Issued by NWS Upton, NY

Current Version | Previous Version | Text Only | Print | Product List | Glossary Off
Versions: 1 2 3 4 5 6 7 8 9 10 11 12 13 14 15 16 17 18 19 20 21 22 23 24 25 26 27 28 29 30 31 32 33 34 35 36 37 38 39 40 41 42 43 44 45 46 47 48 49
000 ASUS41 KOKX 271505 RWROKX REGIONAL WEATHER ROUNDUP NATIONAL WEATHER SERVICE NEW YORK NY 1000 AM EST TUE JAN 27 2015 NOTE: "FAIR" INDICATES FEW OR NO CLOUDS BELOW 12,000 FEET WITH NO SIGNIFICANT WEATHER AND/OR OBSTRUCTIONS TO VISIBILITY. NYZ071-072-176-178-NJZ106-104-271600- NEW YORK CITY METRO AREA CITY SKY/WX TMP DP RH WIND PRES REMARKS CENTRAL PARK CLOUDY 23 16 74 NW6 29.70F HAZE WCI 16 LAGUARDIA APRT FLURRIES 23 16 74 NW18G26 29.68F WCI 9 KENNEDY INTL SNOW 23 17 78 N23G32 29.68S VSB 1/2 WCI 7 NEWARK/LIBERTY LGT SNOW 24 20 84 N14 29.71F WCI 12 BRNX BOT. GARD N/A N/A N/A N/A NW8 29.69F TETERBORO LGT SNOW 23 16 74 N17 29.70F FOG WCI 9 $$ NYZ177-179-078>081-271600- LONG ISLAND NEW YORK CITY SKY/WX TMP DP RH WIND PRES REMARKS FARMINGDALE FOG 20 16 84 N22G30 29.63S VSB 1/2 WCI 3 ISLIP SNOW 21 18 88 NW25G37 29.59R VSB 1/4 WCI 4 SHIRLEY CLOUDY 25 17 72 N23G36 29.60R HAZE WCI 10 WESTHAMPTON CLOUDY 22 16 78 N23G32 29.57S HAZE WCI 6 MONTAUK POINT N/A 22 17 81 N22G36 29.52R WCI 6 $$ NYZ052-065-067-271600- HUDSON VALLEY CITY SKY/WX TMP DP RH WIND PRES REMARKS WHITE PLAINS LGT SNOW 18 12 77 NW29G37 29.64S VSB 1 WCI -1 NEWBURGH LGT SNOW 18 14 86 N12 29.74S FOG WCI 5 MONTGOMERY LGT SNOW 20 11 68 NE6 29.73R WCI 12 POUGHKEEPSIE LGT SNOW 18 10 71 N21 29.76F VSB 1 WCI 1 ALBANY LGT SNOW 13 6 74 N10 29.85R WCI 0 $$ NJZ001-105-106-008-010-013-015-019>022-104-271600- NEW JERSEY CITY SKY/WX TMP DP RH WIND PRES REMARKS NEWARK/LIBERTY LGT SNOW 24 20 84 N14 29.71F WCI 12 TETERBORO LGT SNOW 23 16 74 N17 29.70F FOG WCI 9 CALDWELL LGT SNOW 23 18 81 NW8 29.72S WCI 14 MORRISTOWN LGT SNOW 25 19 80 N8G15 29.74R WCI 16 SOMERVILLE LGT SNOW 24 17 74 N13 29.74R VSB 3/4 WCI 12 SUSSEX LGT SNOW 20 13 74 MISG 29.74R VSB 3/4 ANDOVER N/A 20 11 68 N9 29.74R WCI 9 TRENTON LGT SNOW 24 19 81 N10 29.73S VSB 1 WCI 14 MILLVILLE LGT SNOW 28 24 85 NW13 29.73S FOG WCI 17 ATLANTIC CITY LGT SNOW 26 23 88 N17 29.70R FOG WCI 13 WRIGHTSTOWN LGT SNOW 25 22 87 NW17 29.70S BLWGSNOWWCI 12 TOMS RIVER CLOUDY 25 23 93 N14G23 29.70S WCI 13 BELMAR CLOUDY 25 16 68 N17G28 29.68S WCI 11 $$ PAZ047>061-062-071-271600- EASTERN PENNSYLVANIA CITY SKY/WX TMP DP RH WIND PRES REMARKS PHILADELPHIA FLURRIES 27 21 78 N14 29.77R WCI 16 ALLENTOWN CLOUDY 25 11 55 N12 29.77R WCI 14 SCRANTON CLOUDY 20 6 55 N9 29.78S WCI 9 $$ CTZ002-004>006-009-010-012-RIZ004-006-007-MAZ004-011-015-271600- SOUTHERN NEW ENGLAND IN CT CITY SKY/WX TMP DP RH WIND PRES REMARKS BRADLEY INTL LGT SNOW 21 15 78 N22G29 29.61S VSB 3/4 WCI 5 HARTFORD LGT SNOW 20 14 77 N14 29.63R VSB 3/4 WCI 7 DANBURY LGT SNOW 17 9 70 N16G23 29.67S WCI 2 WTRBRY/OXFORD CLOUDY 18 9 68 NW17 29.59S VSB 1/2 WCI 2 BRIDGEPORT FOG 19 16 88 NW14G23 29.63R VSB 3/4 WCI 6 MERIDEN CLOUDY 22 15 75 N14G21 29.62R HAZE WCI 9 NEW HAVEN LGT SNOW 23 18 81 N17G30 29.59R WCI 9 CHESTER SNOW 19 14 79 N21G30 29.54S VSB 1/2 WCI 3 GROTON FOG 20 16 84 MISG 29.52R VSB 1 WILLIMANTIC HAZE 22 17 81 N14 29.55S VSB 1/2 WCI 9 IN RI CITY SKY/WX TMP DP RH WIND PRES REMARKS PROVIDENCE LGT SNOW 17 13 84 N21G32 29.49R VSB 3/4 WCI 0 BLOCK ISLAND N/A 19 12 73 N20G33 29.45R VSB 1/2 WCI 4 WESTERLY FOG 18 14 84 N18G29 29.51R VSB 1/2 WCI 2 IN MA CITY SKY/WX TMP DP RH WIND PRES REMARKS BOSTON SNOW 16 12 84 N21G30 29.54F VSB 1/2 WCI -1 WORCESTER FOG 16 13 88 NE24G35 29.48S VSB 1/4 WCI -2 WESTFIELD LGT SNOW 20 14 77 N15G29 29.62F VSB 1 WCI 6 PROVINCETOWN N/A N/A N/A N/A MISG N/A NANTUCKET HVY SNOW 32 28 85 NE46G64 29.20R VSB 1/4 WCI 15 $$ ANZ330-335-338-340-345-350-353-355-271600- COASTAL MARINE OBSERVATIONS STATION/POSITION TIME SKY/WX TEMP WIND PRES VSBY WAVE AIR SEA DIR/SP/G HT/PER (UTC) (F) (DEG/KT/KT) (MB) (MI) (FT/S) NY HARB ENTRANCE 1500 26 41 330/ 27/ 33 1003.6 11/11 4S FIRE IS 1500 38 N/A 10/12 20S FIRE ISLAND 1400 43 1002.5 13/11 23SW MTP 1500 N/A 14/11 HUDSON CANYON NOT AVBL EXECUTION ROCKS 1500 22 34 340/ 19/ 29 N/A WESTERN LI SOUND 1500 22 340/ 19/ 25 N/A 2/ 3 CENTRAL LI SOUND 1400 22 36 340/ 23/ 29 N/A 4/ 4 EASTERN LI SOUND NOT AVBL ROBBINS REEF 1500 23 340/ 18/ 27 1004.7 $$ >>>>>>>>>>>>>>>>>>>>>>>>>>>> KEY <<<<<<<<<<<<<<<<<<<<<<<<<<< > < > SKY/WX - SKY CONDITION/PRESENT WEATHER < > TMP - TEMPERATURE IN FAHRENHEIT < > DP - DEWPOINT IN FAHRENHEIT < > RH - RELATIVE HUMIDITY IN PERCENT < > WIND - DIRECTION AND SPEED IN MPH < > PRES - MEAN SEA LEVEL PRESSURE IN INCHES OF HG < > WCI - WIND CHILL INDEX < > VSB - VISIBILITY IN MILES < > HX - HEAT INDEX < > TC - TEMPERATURE IN CELSIUS < > VRB - VARIABLE WIND DIRECTION < > < >>>>>>>>>>>>>>>>>>>>>>>>>>>> KEY <<<<<<<<<<<<<<<<<<<<<<<<<<<

USA.gov is the U.S. government's official web portal to all federal, state and local government web resources and services.